Time,TemperatureF,DewpointF,PressureIn,WindDirection,WindDirectionDegrees,WindSpeedMPH,WindSpeedGustMPH,Humidity,HourlyPrecipIn,Conditions,Clouds,dailyrainin,SoftwareType,DateUTC
2013-01-02 00:03:00,21.0,17.8,29.19,West,271,0.0,0.0,87,0.00,,,0.00,LWC V2.00 B2112,2013-01-02 09:03:00,
2013-01-02 00:08:00,21.1,17.8,29.18,West,271,0.0,0.0,87,0.00,,,0.00,LWC V2.00 B2112,2013-01-02 09:08:00,
2013-01-02 00:13:00,21.2,17.9,29.18,West,270,0.0,0.0,87,0.00,,,0.00,LWC V2.00 B2112,2013-01-02 09:13:00,
2013-01-02 00:18:00,21.1,17.8,29.19,West,271,0.0,0.0,87,0.00,,,0.00,LWC V2.00 B2112,2013-01-02 09:18:00,
2013-01-02 00:23:00,21.1,17.8,29.19,West,271,0.0,0.0,87,0.00,,,0.00,LWC V2.00 B2112,2013-01-02 09:23:00,
2013-01-02 00:28:00,21.1,17.8,29.19,West,271,0.0,0.0,87,0.00,,,0.00,LWC V2.00 B2112,2013-01-02 09:28:00,
2013-01-02 00:33:00,20.9,17.7,29.19,West,270,0.0,0.0,87,0.00,,,0.00,LWC V2.00 B2112,2013-01-02 09:33:00,
2013-01-02 00:38:00,20.9,17.7,29.19,West,271,0.0,0.0,87,0.00,,,0.00,LWC V2.00 B2112,2013-01-02 09:38:00,
2013-01-02 00:43:00,21.1,17.8,29.19,West,271,0.0,0.0,87,0.00,,,0.00,LWC V2.00 B2112,2013-01-02 09:43:00,
2013-01-02 00:48:00,20.9,17.7,29.20,West,270,0.0,0.0,87,0.00,,,0.00,LWC V2.00 B2112,2013-01-02 09:48:00,
2013-01-02 00:53:00,21.1,17.8,29.20,West,271,0.0,0.0,87,0.00,,,0.00,LWC V2.00 B2112,2013-01-02 09:53:00,
2013-01-02 00:58:00,21.2,18.2,29.20,West,271,0.0,0.0,88,0.00,,,0.00,LWC V2.00 B2112,2013-01-02 09:58:00,
2013-01-02 01:03:00,21.1,17.8,29.20,West,271,0.0,0.0,87,0.00,,,0.00,LWC V2.00 B2112,2013-01-02 10:03:00,
2013-01-02 01:08:00,20.9,17.9,29.20,West,271,0.0,0.0,88,0.00,,,0.00,LWC V2.00 B2112,2013-01-02 10:08:00,
2013-01-02 01:13:00,20.7,17.7,29.20,West,271,0.0,0.0,88,0.00,,,0.00,LWC V2.00 B2112,2013-01-02 10:13:00,
2013-01-02 01:18:00,20.5,17.5,29.20,West,271,0.0,0.0,88,0.00,,,0.00,LWC V2.00 B2112,2013-01-02 10:18:00,
2013-01-02 01:23:00,20.4,17.4,29.20,West,270,0.0,0.0,88,0.00,,,0.00,LWC V2.00 B2112,2013-01-02 10:23:00,
2013-01-02 01:28:00,20.7,17.5,29.20,West,271,0.0,0.0,87,0.00,,,0.00,LWC V2.00 B2112,2013-01-02 10:28:00,
2013-01-02 01:33:00,20.5,17.5,29.20,West,270,0.0,0.0,88,0.00,,,0.00,LWC V2.00 B2112,2013-01-02 10:33:00,
2013-01-02 01:38:00,20.4,17.4,29.21,West,271,0.0,0.0,88,0.00,,,0.00,LWC V2.00 B2112,2013-01-02 10:38:00,
2013-01-02 01:43:00,20.4,17.4,29.20,West,270,0.0,0.0,88,0.00,,,0.00,LWC V2.00 B2112,2013-01-02 10:43:00,
2013-01-02 01:48:00,20.3,17.3,29.21,West,271,0.0,0.0,88,0.00,,,0.00,LWC V2.00 B2112,2013-01-02 10:48:00,
2013-01-02 01:53:00,20.4,17.4,29.21,West,271,0.0,0.0,88,0.00,,,0.00,LWC V2.00 B2112,2013-01-02 10:53:00,
2013-01-02 01:58:00,20.6,17.4,29.21,West,270,0.0,0.0,87,0.00,,,0.00,LWC V2.00 B2112,2013-01-02 10:58:00,
2013-01-02 02:03:00,20.4,17.4,29.22,West,271,0.0,0.0,88,0.00,,,0.00,LWC V2.00 B2112,2013-01-02 11:03:00,
2013-01-02 02:08:00,20.1,17.1,29.22,West,271,0.0,0.0,88,0.00,,,0.00,LWC V2.00 B2112,2013-01-02 11:08:00,
2013-01-02 02:13:00,19.7,16.7,29.22,West,271,0.0,0.0,88,0.00,,,0.00,LWC V2.00 B2112,2013-01-02 11:13:00,
2013-01-02 02:18:00,19.7,16.7,29.21,West,270,0.0,0.0,88,0.00,,,0.00,LWC V2.00 B2112,2013-01-02 11:18:00,
2013-01-02 02:23:00,19.7,16.7,29.22,West,271,0.0,0.0,88,0.00,,,0.00,LWC V2.00 B2112,2013-01-02 11:23:00,
2013-01-02 02:28:00,19.4,16.4,29.23,West,271,0.0,0.0,88,0.00,,,0.00,LWC V2.00 B2112,2013-01-02 11:28:00,
2013-01-02 02:33:00,19.3,16.3,29.23,West,270,0.0,0.0,88,0.00,,,0.00,LWC V2.00 B2112,2013-01-02 11:33:00,
2013-01-02 02:38:00,19.1,16.1,29.23,West,271,0.0,0.0,88,0.00,,,0.00,LWC V2.00 B2112,2013-01-02 11:38:00,
2013-01-02 02:43:00,19.0,16.0,29.23,West,271,0.0,0.0,88,0.00,,,0.00,LWC V2.00 B2112,2013-01-02 11:43:00,
2013-01-02 02:48:00,19.0,16.0,29.23,West,271,0.0,0.0,88,0.00,,,0.00,LWC V2.00 B2112,2013-01-02 11:48:00,
2013-01-02 02:53:00,18.8,15.8,29.24,West,271,0.0,0.0,88,0.00,,,0.00,LWC V2.00 B2112,2013-01-02 11:53:00,
2013-01-02 02:58:00,18.6,15.6,29.24,West,271,0.0,0.0,88,0.00,,,0.00,LWC V2.00 B2112,2013-01-02 11:58:00,
2013-01-02 03:03:00,18.4,15.5,29.24,West,271,0.0,0.0,88,0.00,,,0.00,LWC V2.00 B2112,2013-01-02 12:03:00,
2013-01-02 03:08:00,18.5,15.6,29.24,West,270,0.0,0.0,88,0.00,,,0.00,LWC V2.00 B2112,2013-01-02 12:08:00,
2013-01-02 03:13:00,18.8,15.8,29.24,West,271,0.0,0.0,88,0.00,,,0.00,LWC V2.00 B2112,2013-01-02 12:13:00,
2013-01-02 03:18:00,18.7,15.7,29.25,West,271,0.0,0.0,88,0.00,,,0.00,LWC V2.00 B2112,2013-01-02 12:18:00,
2013-01-02 03:23:00,18.6,15.6,29.25,West,271,0.0,0.0,88,0.00,,,0.00,LWC V2.00 B2112,2013-01-02 12:23:00,
2013-01-02 03:28:00,18.5,15.6,29.25,West,270,0.0,0.0,88,0.00,,,0.00,LWC V2.00 B2112,2013-01-02 12:28:00,
2013-01-02 03:33:00,18.2,15.3,29.25,West,271,0.0,0.0,88,0.00,,,0.00,LWC V2.00 B2112,2013-01-02 12:33:00,
2013-01-02 03:38:00,17.9,15.0,29.25,West,271,0.0,0.0,88,0.00,,,0.00,LWC V2.00 B2112,2013-01-02 12:38:00,
2013-01-02 03:43:00,18.0,15.1,29.26,West,271,0.0,0.0,88,0.00,,,0.00,LWC V2.00 B2112,2013-01-02 12:43:00,
2013-01-02 03:48:00,17.8,14.9,29.26,West,270,0.0,0.0,88,0.00,,,0.00,LWC V2.00 B2112,2013-01-02 12:48:00,
2013-01-02 03:53:00,17.5,14.6,29.26,West,271,0.0,0.0,88,0.00,,,0.00,LWC V2.00 B2112,2013-01-02 12:53:00,
2013-01-02 03:58:00,17.2,14.5,29.26,West,271,0.0,0.0,89,0.00,,,0.00,LWC V2.00 B2112,2013-01-02 12:58:00,
2013-01-02 04:03:00,17.0,14.1,29.26,West,270,0.0,0.0,88,0.00,,,0.00,LWC V2.00 B2112,2013-01-02 13:03:00,
2013-01-02 04:08:00,17.0,14.1,29.27,West,270,0.0,0.0,88,0.00,,,0.00,LWC V2.00 B2112,2013-01-02 13:08:00,
2013-01-02 04:13:00,16.9,14.0,29.26,West,271,0.0,0.0,88,0.00,,,0.00,LWC V2.00 B2112,2013-01-02 13:13:00,
2013-01-02 04:18:00,16.5,13.8,29.26,West,271,0.0,0.0,89,0.00,,,0.00,LWC V2.00 B2112,2013-01-02 13:18:00,
2013-01-02 04:23:00,16.0,13.3,29.27,West,271,0.0,0.0,89,0.00,,,0.00,LWC V2.00 B2112,2013-01-02 13:23:00,
2013-01-02 04:28:00,16.0,13.3,29.27,West,270,0.0,0.0,89,0.00,,,0.00,LWC V2.00 B2112,2013-01-02 13:28:00,
2013-01-02 04:33:00,16.1,13.4,29.27,West,271,0.0,0.0,89,0.00,,,0.00,LWC V2.00 B2112,2013-01-02 13:33:00,
2013-01-02 04:38:00,16.0,13.3,29.27,West,270,0.0,0.0,89,0.00,,,0.00,LWC V2.00 B2112,2013-01-02 13:38:00,
2013-01-02 04:43:00,15.6,12.9,29.27,West,271,0.0,0.0,89,0.00,,,0.00,LWC V2.00 B2112,2013-01-02 13:43:00,
2013-01-02 04:48:00,15.2,12.6,29.27,West,271,0.0,0.0,89,0.00,,,0.00,LWC V2.00 B2112,2013-01-02 13:48:00,
2013-01-02 04:53:00,14.8,12.2,29.27,West,271,0.0,0.0,89,0.00,,,0.00,LWC V2.00 B2112,2013-01-02 13:53:00,
2013-01-02 04:58:00,14.7,12.1,29.27,West,270,0.0,0.0,89,0.00,,,0.00,LWC V2.00 B2112,2013-01-02 13:58:00,
2013-01-02 05:03:00,14.5,11.9,29.27,West,271,0.0,0.0,89,0.00,,,0.00,LWC V2.00 B2112,2013-01-02 14:03:00,
2013-01-02 05:08:00,14.5,11.9,29.28,West,271,0.0,0.0,89,0.00,,,0.00,LWC V2.00 B2112,2013-01-02 14:08:00,
2013-01-02 05:13:00,14.5,11.9,29.28,West,270,0.0,0.0,89,0.00,,,0.00,LWC V2.00 B2112,2013-01-02 14:13:00,
2013-01-02 05:18:00,14.4,11.8,29.28,West,271,0.0,0.0,89,0.00,,,0.00,LWC V2.00 B2112,2013-01-02 14:18:00,
2013-01-02 05:23:00,14.1,11.5,29.29,West,271,0.0,0.0,89,0.00,,,0.00,LWC V2.00 B2112,2013-01-02 14:23:00,
2013-01-02 05:28:00,13.8,11.2,29.29,West,271,0.0,0.0,89,0.00,,,0.00,LWC V2.00 B2112,2013-01-02 14:28:00,
2013-01-02 05:33:00,13.7,11.1,29.29,West,270,0.0,0.0,89,0.00,,,0.00,LWC V2.00 B2112,2013-01-02 14:33:00,
2013-01-02 05:38:00,13.8,11.2,29.29,West,271,0.0,0.0,89,0.00,,,0.00,LWC V2.00 B2112,2013-01-02 14:38:00,
2013-01-02 05:43:00,13.9,11.3,29.30,West,271,0.0,0.0,89,0.00,,,0.00,LWC V2.00 B2112,2013-01-02 14:43:00,
2013-01-02 05:48:00,14.4,11.8,29.30,West,270,0.0,0.0,89,0.00,,,0.00,LWC V2.00 B2112,2013-01-02 14:48:00,
2013-01-02 05:53:00,14.8,12.2,29.30,West,270,0.0,0.0,89,0.00,,,0.00,LWC V2.00 B2112,2013-01-02 14:53:00,
2013-01-02 05:58:00,14.9,12.3,29.30,West,271,0.0,0.0,89,0.00,,,0.00,LWC V2.00 B2112,2013-01-02 14:58:00,
2013-01-02 06:03:00,14.6,12.0,29.30,West,271,0.0,0.0,89,0.00,,,0.00,LWC V2.00 B2112,2013-01-02 15:03:00,
2013-01-02 06:08:00,14.4,11.8,29.31,West,271,0.0,0.0,89,0.00,,,0.00,LWC V2.00 B2112,2013-01-02 15:08:00,
2013-01-02 06:13:00,14.4,11.8,29.31,West,271,0.0,0.0,89,0.00,,,0.00,LWC V2.00 B2112,2013-01-02 15:13:00,
2013-01-02 06:18:00,14.7,12.1,29.31,West,271,0.0,0.0,89,0.00,,,0.00,LWC V2.00 B2112,2013-01-02 15:18:00,
2013-01-02 06:23:00,14.6,12.0,29.31,West,271,0.0,0.0,89,0.00,,,0.00,LWC V2.00 B2112,2013-01-02 15:23:00,
2013-01-02 06:28:00,14.8,12.2,29.31,West,270,0.0,0.0,89,0.00,,,0.00,LWC V2.00 B2112,2013-01-02 15:28:00,
2013-01-02 06:33:00,14.9,12.3,29.31,West,271,0.0,0.0,89,0.00,,,0.00,LWC V2.00 B2112,2013-01-02 15:33:00,
2013-01-02 06:38:00,15.1,12.5,29.31,West,271,0.0,0.0,89,0.00,,,0.00,LWC V2.00 B2112,2013-01-02 15:38:00,
2013-01-02 06:43:00,15.1,12.5,29.32,West,271,0.0,0.0,89,0.00,,,0.00,LWC V2.00 B2112,2013-01-02 15:43:00,
2013-01-02 06:48:00,14.8,12.2,29.32,West,270,0.0,0.0,89,0.00,,,0.00,LWC V2.00 B2112,2013-01-02 15:48:00,
2013-01-02 06:53:00,14.5,11.9,29.32,West,271,0.0,0.0,89,0.00,,,0.00,LWC V2.00 B2112,2013-01-02 15:53:00,
2013-01-02 06:58:00,14.4,11.8,29.32,West,271,0.0,0.0,89,0.00,,,0.00,LWC V2.00 B2112,2013-01-02 15:58:00,
2013-01-02 07:03:00,14.3,11.7,29.32,West,270,0.0,0.0,89,0.00,,,0.00,LWC V2.00 B2112,2013-01-02 16:03:00,
2013-01-02 07:08:00,14.3,11.7,29.32,West,271,0.0,0.0,89,0.00,,,0.00,LWC V2.00 B2112,2013-01-02 16:08:00,
2013-01-02 07:13:00,14.2,11.6,29.32,West,271,0.0,0.0,89,0.00,,,0.00,LWC V2.00 B2112,2013-01-02 16:13:00,
2013-01-02 07:18:00,14.3,11.7,29.32,West,271,0.0,0.0,89,0.00,,,0.00,LWC V2.00 B2112,2013-01-02 16:18:00,
2013-01-02 07:23:00,14.5,11.9,29.32,West,271,0.0,0.0,89,0.00,,,0.00,LWC V2.00 B2112,2013-01-02 16:23:00,
2013-01-02 07:28:00,14.8,12.2,29.33,West,271,0.0,0.0,89,0.00,,,0.00,LWC V2.00 B2112,2013-01-02 16:28:00,
2013-01-02 07:33:00,14.7,12.1,29.33,West,270,0.0,0.0,89,0.00,,,0.00,LWC V2.00 B2112,2013-01-02 16:33:00,
2013-01-02 07:38:00,14.6,12.0,29.33,West,270,0.0,0.0,89,0.00,,,0.00,LWC V2.00 B2112,2013-01-02 16:38:00,
2013-01-02 07:43:00,14.4,11.8,29.33,West,270,0.0,0.0,89,0.00,,,0.00,LWC V2.00 B2112,2013-01-02 16:43:00,
2013-01-02 07:48:00,14.3,11.7,29.33,West,271,0.0,0.0,89,0.00,,,0.00,LWC V2.00 B2112,2013-01-02 16:48:00,
2013-01-02 07:53:00,14.1,11.5,29.33,West,271,0.0,0.0,89,0.00,,,0.00,LWC V2.00 B2112,2013-01-02 16:53:00,
2013-01-02 07:58:00,14.0,11.4,29.33,West,270,0.0,0.0,89,0.00,,,0.00,LWC V2.00 B2112,2013-01-02 16:58:00,
2013-01-02 08:03:00,13.9,11.3,29.33,West,271,0.0,0.0,89,0.00,,,0.00,LWC V2.00 B2112,2013-01-02 17:03:00,
2013-01-02 08:08:00,13.7,11.1,29.34,West,271,0.0,0.0,89,0.00,,,0.00,LWC V2.00 B2112,2013-01-02 17:08:00,
2013-01-02 08:13:00,13.6,11.0,29.34,West,270,0.0,0.0,89,0.00,,,0.00,LWC V2.00 B2112,2013-01-02 17:13:00,
2013-01-02 08:18:00,13.4,10.8,29.34,West,271,0.0,0.0,89,0.00,,,0.00,LWC V2.00 B2112,2013-01-02 17:18:00,
2013-01-02 08:23:00,13.3,10.7,29.34,West,271,0.0,0.0,89,0.00,,,0.00,LWC V2.00 B2112,2013-01-02 17:23:00,
2013-01-02 08:28:00,13.2,10.6,29.34,West,271,0.0,0.0,89,0.00,,,0.00,LWC V2.00 B2112,2013-01-02 17:28:00,
2013-01-02 08:33:00,13.0,10.4,29.35,West,271,0.0,0.0,89,0.00,,,0.00,LWC V2.00 B2112,2013-01-02 17:33:00,
2013-01-02 08:38:00,12.9,10.3,29.35,West,271,0.0,0.0,89,0.00,,,0.00,LWC V2.00 B2112,2013-01-02 17:38:00,
2013-01-02 08:43:00,12.8,10.2,29.36,West,270,0.0,0.0,89,0.00,,,0.00,LWC V2.00 B2112,2013-01-02 17:43:00,
2013-01-02 08:48:00,12.7,10.1,29.36,West,271,0.0,0.0,89,0.00,,,0.00,LWC V2.00 B2112,2013-01-02 17:48:00,
2013-01-02 08:53:00,12.5,9.9,29.36,West,271,0.0,0.0,89,0.00,,,0.00,LWC V2.00 B2112,2013-01-02 17:53:00,
2013-01-02 08:58:00,12.4,9.8,29.36,West,271,0.0,0.0,89,0.00,,,0.00,LWC V2.00 B2112,2013-01-02 17:58:00,
2013-01-02 09:03:00,12.3,9.7,29.36,West,270,0.0,0.0,89,0.00,,,0.00,LWC V2.00 B2112,2013-01-02 18:03:00,
2013-01-02 09:08:00,12.4,9.8,29.37,West,271,0.0,0.0,89,0.00,,,0.00,LWC V2.00 B2112,2013-01-02 18:08:00,
2013-01-02 09:13:00,12.5,9.9,29.37,West,271,0.0,0.0,89,0.00,,,0.00,LWC V2.00 B2112,2013-01-02 18:13:00,
2013-01-02 09:18:00,12.6,10.0,29.37,West,271,0.0,0.0,89,0.00,,,0.00,LWC V2.00 B2112,2013-01-02 18:18:00,
2013-01-02 09:23:00,12.6,10.0,29.37,West,271,0.0,0.0,89,0.00,,,0.00,LWC V2.00 B2112,2013-01-02 18:23:00,
2013-01-02 09:28:00,12.1,9.5,29.38,West,271,0.0,0.0,89,0.00,,,0.00,LWC V2.00 B2112,2013-01-02 18:28:00,
2013-01-02 09:33:00,11.8,9.2,29.38,West,271,0.0,0.0,89,0.00,,,0.00,LWC V2.00 B2112,2013-01-02 18:33:00,
2013-01-02 09:38:00,11.6,9.0,29.38,West,271,0.0,0.0,89,0.00,,,0.00,LWC V2.00 B2112,2013-01-02 18:38:00,
2013-01-02 09:43:00,11.4,8.8,29.39,West,271,0.0,0.0,89,0.00,,,0.00,LWC V2.00 B2112,2013-01-02 18:43:00,
2013-01-02 09:48:00,11.0,8.4,29.39,West,271,0.0,0.0,89,0.00,,,0.00,LWC V2.00 B2112,2013-01-02 18:48:00,
2013-01-02 09:53:00,10.8,8.2,29.39,West,271,0.0,0.0,89,0.00,,,0.00,LWC V2.00 B2112,2013-01-02 18:53:00,
2013-01-02 09:58:00,10.7,8.1,29.39,West,271,0.0,0.0,89,0.00,,,0.00,LWC V2.00 B2112,2013-01-02 18:58:00,
2013-01-02 10:03:00,10.5,7.9,29.40,West,271,0.0,0.0,89,0.00,,,0.00,LWC V2.00 B2112,2013-01-02 19:03:00,
2013-01-02 10:08:00,10.3,7.7,29.40,West,271,0.0,0.0,89,0.00,,,0.00,LWC V2.00 B2112,2013-01-02 19:08:00,
2013-01-02 10:13:00,10.4,7.8,29.40,West,271,0.0,0.0,89,0.00,,,0.00,LWC V2.00 B2112,2013-01-02 19:13:00,
2013-01-02 10:18:00,10.4,7.8,29.40,West,271,0.0,0.0,89,0.00,,,0.00,LWC V2.00 B2112,2013-01-02 19:18:00,
2013-01-02 10:23:00,10.4,7.8,29.41,NNE,15,0.0,0.0,89,0.00,,,0.00,LWC V2.00 B2112,2013-01-02 19:23:00,
2013-01-02 10:28:00,10.8,8.2,29.40,South,186,0.0,0.0,89,0.00,,,0.00,LWC V2.00 B2112,2013-01-02 19:28:00,
2013-01-02 10:33:00,11.0,8.4,29.41,SE,126,0.0,0.0,89,0.00,,,0.00,LWC V2.00 B2112,2013-01-02 19:33:00,
2013-01-02 10:38:00,11.1,8.5,29.41,SE,126,0.0,0.0,89,0.00,,,0.00,LWC V2.00 B2112,2013-01-02 19:38:00,
2013-01-02 10:43:00,11.1,8.5,29.42,WSW,240,0.0,0.0,89,0.00,,,0.00,LWC V2.00 B2112,2013-01-02 19:43:00,
2013-01-02 10:48:00,11.2,8.6,29.42,WSW,240,0.0,0.0,89,0.00,,,0.00,LWC V2.00 B2112,2013-01-02 19:48:00,
2013-01-02 10:53:00,11.0,8.4,29.42,WSW,240,0.0,0.0,89,0.00,,,0.00,LWC V2.00 B2112,2013-01-02 19:53:00,
2013-01-02 10:58:00,10.7,8.1,29.42,WSW,240,0.0,0.0,89,0.00,,,0.00,LWC V2.00 B2112,2013-01-02 19:58:00,
2013-01-02 11:03:00,10.5,7.9,29.42,WSW,240,0.0,0.0,89,0.00,,,0.00,LWC V2.00 B2112,2013-01-02 20:03:00,
2013-01-02 11:08:00,10.3,7.7,29.43,WSW,240,0.0,0.0,89,0.00,,,0.00,LWC V2.00 B2112,2013-01-02 20:08:00,
2013-01-02 11:13:00,10.3,7.7,29.42,WSW,240,0.0,0.0,89,0.00,,,0.00,LWC V2.00 B2112,2013-01-02 20:13:00,
2013-01-02 11:18:00,10.3,7.7,29.42,WSW,240,0.0,0.0,89,0.00,,,0.00,LWC V2.00 B2112,2013-01-02 20:18:00,
2013-01-02 11:23:00,10.3,7.7,29.43,WSW,240,0.0,0.0,89,0.00,,,0.00,LWC V2.00 B2112,2013-01-02 20:23:00,
2013-01-02 11:28:00,10.3,7.7,29.43,WSW,240,0.0,0.0,89,0.00,,,0.00,LWC V2.00 B2112,2013-01-02 20:28:00,
2013-01-02 11:33:00,10.2,7.6,29.43,WSW,240,0.0,0.0,89,0.00,,,0.00,LWC V2.00 B2112,2013-01-02 20:33:00,
2013-01-02 11:38:00,10.2,7.6,29.43,WSW,240,0.0,0.0,89,0.00,,,0.00,LWC V2.00 B2112,2013-01-02 20:38:00,
2013-01-02 11:43:00,10.3,7.7,29.42,WSW,240,0.0,0.0,89,0.00,,,0.00,LWC V2.00 B2112,2013-01-02 20:43:00,
2013-01-02 11:48:00,10.9,8.3,29.42,WSW,240,0.0,0.0,89,0.00,,,0.00,LWC V2.00 B2112,2013-01-02 20:48:00,
2013-01-02 11:53:00,11.0,8.4,29.43,WSW,240,0.0,0.0,89,0.00,,,0.00,LWC V2.00 B2112,2013-01-02 20:53:00,
2013-01-02 11:58:00,11.0,8.4,29.43,WSW,240,0.0,0.0,89,0.00,,,0.00,LWC V2.00 B2112,2013-01-02 20:58:00,
2013-01-02 12:03:00,11.0,8.4,29.43,WSW,240,0.0,0.0,89,0.00,,,0.00,LWC V2.00 B2112,2013-01-02 21:03:00,
2013-01-02 12:08:00,11.0,8.4,29.43,WSW,240,0.0,0.0,89,0.00,,,0.00,LWC V2.00 B2112,2013-01-02 21:08:00,
2013-01-02 12:13:00,10.9,8.3,29.43,WSW,240,0.0,0.0,89,0.00,,,0.00,LWC V2.00 B2112,2013-01-02 21:13:00,
2013-01-02 12:18:00,10.9,8.3,29.43,WSW,240,0.0,0.0,89,0.00,,,0.00,LWC V2.00 B2112,2013-01-02 21:18:00,
2013-01-02 12:23:00,10.9,8.3,29.43,WSW,240,0.0,0.0,89,0.00,,,0.00,LWC V2.00 B2112,2013-01-02 21:23:00,
2013-01-02 12:28:00,11.0,8.4,29.43,WSW,240,0.0,0.0,89,0.00,,,0.00,LWC V2.00 B2112,2013-01-02 21:28:00,
2013-01-02 12:33:00,11.2,8.6,29.43,WSW,240,0.0,0.0,89,0.00,,,0.00,LWC V2.00 B2112,2013-01-02 21:33:00,
2013-01-02 12:38:00,11.4,8.8,29.43,WSW,240,0.0,0.0,89,0.00,,,0.00,LWC V2.00 B2112,2013-01-02 21:38:00,
2013-01-02 12:43:00,11.6,9.0,29.43,WSW,240,0.0,0.0,89,0.00,,,0.00,LWC V2.00 B2112,2013-01-02 21:43:00,
2013-01-02 12:48:00,11.7,9.1,29.44,WSW,240,0.0,0.0,89,0.00,,,0.00,LWC V2.00 B2112,2013-01-02 21:48:00,
2013-01-02 12:53:00,11.8,9.2,29.43,WSW,240,0.0,0.0,89,0.00,,,0.00,LWC V2.00 B2112,2013-01-02 21:53:00,
2013-01-02 12:58:00,12.1,9.5,29.43,WSW,240,0.0,0.0,89,0.00,,,0.00,LWC V2.00 B2112,2013-01-02 21:58:00,
2013-01-02 13:03:00,12.5,9.9,29.43,WSW,240,0.0,0.0,89,0.00,,,0.00,LWC V2.00 B2112,2013-01-02 22:03:00,
2013-01-02 13:08:00,12.5,9.9,29.44,WSW,240,0.0,0.0,89,0.00,,,0.00,LWC V2.00 B2112,2013-01-02 22:08:00,
2013-01-02 13:13:00,12.6,10.0,29.44,WSW,240,0.0,0.0,89,0.00,,,0.00,LWC V2.00 B2112,2013-01-02 22:13:00,
2013-01-02 13:18:00,12.8,10.2,29.44,WSW,240,0.0,0.0,89,0.00,,,0.00,LWC V2.00 B2112,2013-01-02 22:18:00,
2013-01-02 13:23:00,13.0,10.4,29.44,WSW,240,0.0,0.0,89,0.00,,,0.00,LWC V2.00 B2112,2013-01-02 22:23:00,
2013-01-02 13:28:00,12.8,10.2,29.44,WSW,240,0.0,0.0,89,0.00,,,0.00,LWC V2.00 B2112,2013-01-02 22:28:00,
2013-01-02 13:33:00,12.6,10.0,29.44,WSW,240,0.0,0.0,89,0.00,,,0.00,LWC V2.00 B2112,2013-01-02 22:33:00,
2013-01-02 13:38:00,12.4,9.8,29.45,WSW,240,0.0,0.0,89,0.00,,,0.00,LWC V2.00 B2112,2013-01-02 22:38:00,
2013-01-02 13:43:00,12.3,9.7,29.45,WSW,240,0.0,0.0,89,0.00,,,0.00,LWC V2.00 B2112,2013-01-02 22:43:00,
2013-01-02 13:48:00,12.3,9.7,29.45,WSW,240,0.0,0.0,89,0.00,,,0.00,LWC V2.00 B2112,2013-01-02 22:48:00,
2013-01-02 13:53:00,12.3,9.7,29.45,WSW,240,0.0,0.0,89,0.00,,,0.00,LWC V2.00 B2112,2013-01-02 22:53:00,
2013-01-02 13:58:00,12.2,9.6,29.45,WSW,240,0.0,0.0,89,0.00,,,0.00,LWC V2.00 B2112,2013-01-02 22:58:00,
2013-01-02 14:03:00,12.1,9.5,29.45,WSW,240,0.0,0.0,89,0.00,,,0.00,LWC V2.00 B2112,2013-01-02 23:03:00,
2013-01-02 14:08:00,12.1,9.5,29.46,WSW,240,0.0,0.0,89,0.00,,,0.00,LWC V2.00 B2112,2013-01-02 23:08:00,
2013-01-02 14:13:00,12.0,9.4,29.46,WSW,240,0.0,0.0,89,0.00,,,0.00,LWC V2.00 B2112,2013-01-02 23:13:00,
2013-01-02 14:18:00,12.1,9.5,29.46,WSW,240,0.0,0.0,89,0.00,,,0.00,LWC V2.00 B2112,2013-01-02 23:18:00,
2013-01-02 14:23:00,12.2,9.6,29.46,WSW,240,0.0,0.0,89,0.00,,,0.00,LWC V2.00 B2112,2013-01-02 23:23:00,
2013-01-02 14:28:00,12.3,9.7,29.46,WSW,240,0.0,0.0,89,0.00,,,0.00,LWC V2.00 B2112,2013-01-02 23:28:00,
2013-01-02 14:33:00,12.3,9.7,29.46,WSW,240,0.0,0.0,89,0.00,,,0.00,LWC V2.00 B2112,2013-01-02 23:33:00,
2013-01-02 14:38:00,12.3,9.7,29.47,WSW,240,0.0,0.0,89,0.00,,,0.00,LWC V2.00 B2112,2013-01-02 23:38:00,
2013-01-02 14:43:00,12.3,9.7,29.47,WSW,240,0.0,0.0,89,0.00,,,0.00,LWC V2.00 B2112,2013-01-02 23:43:00,
2013-01-02 14:48:00,12.2,9.6,29.47,WSW,240,0.0,0.0,89,0.00,,,0.00,LWC V2.00 B2112,2013-01-02 23:48:00,
2013-01-02 14:53:00,12.1,9.5,29.47,WSW,240,0.0,0.0,89,0.00,,,0.00,LWC V2.00 B2112,2013-01-02 23:53:00,
2013-01-02 14:58:00,11.9,9.3,29.47,WSW,240,0.0,0.0,89,0.00,,,0.00,LWC V2.00 B2112,2013-01-02 23:58:00,
2013-01-02 15:03:00,11.8,9.2,29.47,WSW,240,0.0,0.0,89,0.00,,,0.00,LWC V2.00 B2112,2013-01-03 00:03:00,
2013-01-02 15:08:00,11.7,9.1,29.47,WSW,240,0.0,0.0,89,0.00,,,0.00,LWC V2.00 B2112,2013-01-03 00:08:00,
2013-01-02 15:13:00,11.6,9.0,29.47,WSW,240,0.0,0.0,89,0.00,,,0.00,LWC V2.00 B2112,2013-01-03 00:13:00,
2013-01-02 15:18:00,11.6,9.0,29.47,WSW,240,0.0,0.0,89,0.00,,,0.00,LWC V2.00 B2112,2013-01-03 00:18:00,
2013-01-02 15:23:00,11.7,9.1,29.47,WSW,240,0.0,0.0,89,0.00,,,0.00,LWC V2.00 B2112,2013-01-03 00:23:00,
2013-01-02 15:28:00,12.0,9.4,29.47,WSW,240,0.0,0.0,89,0.00,,,0.00,LWC V2.00 B2112,2013-01-03 00:28:00,
2013-01-02 15:33:00,12.3,9.7,29.47,WSW,240,0.0,0.0,89,0.00,,,0.00,LWC V2.00 B2112,2013-01-03 00:33:00,
2013-01-02 15:38:00,12.3,9.7,29.47,WSW,240,0.0,0.0,89,0.00,,,0.00,LWC V2.00 B2112,2013-01-03 00:38:00,
2013-01-02 15:43:00,12.5,9.9,29.47,WSW,240,0.0,0.0,89,0.00,,,0.00,LWC V2.00 B2112,2013-01-03 00:43:00,
2013-01-02 15:48:00,12.5,9.9,29.47,WSW,240,0.0,0.0,89,0.00,,,0.00,LWC V2.00 B2112,2013-01-03 00:48:00,
2013-01-02 15:53:00,12.3,9.7,29.47,WSW,240,0.0,0.0,89,0.00,,,0.00,LWC V2.00 B2112,2013-01-03 00:53:00,
2013-01-02 15:58:00,12.2,9.6,29.47,WSW,240,0.0,0.0,89,0.00,,,0.00,LWC V2.00 B2112,2013-01-03 00:58:00,
2013-01-02 16:03:00,12.1,9.5,29.47,WSW,240,0.0,0.0,89,0.00,,,0.00,LWC V2.00 B2112,2013-01-03 01:03:00,
2013-01-02 16:08:00,12.0,9.4,29.47,WSW,240,0.0,0.0,89,0.00,,,0.00,LWC V2.00 B2112,2013-01-03 01:08:00,
2013-01-02 16:13:00,11.9,9.3,29.48,WSW,240,0.0,0.0,89,0.00,,,0.00,LWC V2.00 B2112,2013-01-03 01:13:00,
2013-01-02 16:18:00,11.8,9.2,29.48,WSW,240,0.0,0.0,89,0.00,,,0.00,LWC V2.00 B2112,2013-01-03 01:18:00,
2013-01-02 16:23:00,11.8,9.2,29.48,WSW,240,0.0,0.0,89,0.00,,,0.00,LWC V2.00 B2112,2013-01-03 01:23:00,
2013-01-02 16:28:00,11.7,9.1,29.48,WSW,240,0.0,0.0,89,0.00,,,0.00,LWC V2.00 B2112,2013-01-03 01:28:00,
2013-01-02 16:33:00,11.7,9.1,29.48,WSW,240,0.0,0.0,89,0.00,,,0.00,LWC V2.00 B2112,2013-01-03 01:33:00,
2013-01-02 16:38:00,11.5,8.9,29.49,WSW,240,0.0,0.0,89,0.00,,,0.00,LWC V2.00 B2112,2013-01-03 01:38:00,
2013-01-02 16:43:00,11.4,8.8,29.49,WSW,240,0.0,0.0,89,0.00,,,0.00,LWC V2.00 B2112,2013-01-03 01:43:00,
2013-01-02 16:48:00,11.4,8.8,29.49,WSW,240,0.0,0.0,89,0.00,,,0.00,LWC V2.00 B2112,2013-01-03 01:48:00,
2013-01-02 16:53:00,11.3,8.7,29.49,WSW,240,0.0,0.0,89,0.00,,,0.00,LWC V2.00 B2112,2013-01-03 01:53:00,
2013-01-02 16:58:00,11.1,8.5,29.49,WSW,240,0.0,0.0,89,0.00,,,0.00,LWC V2.00 B2112,2013-01-03 01:58:00,
2013-01-02 17:03:00,10.9,8.3,29.49,WSW,240,0.0,0.0,89,0.00,,,0.00,LWC V2.00 B2112,2013-01-03 02:03:00,
2013-01-02 17:08:00,10.9,8.3,29.49,WSW,240,0.0,0.0,89,0.00,,,0.00,LWC V2.00 B2112,2013-01-03 02:08:00,
2013-01-02 17:13:00,10.9,8.3,29.49,WSW,240,0.0,0.0,89,0.00,,,0.00,LWC V2.00 B2112,2013-01-03 02:13:00,
2013-01-02 17:18:00,10.9,8.3,29.49,WSW,240,0.0,0.0,89,0.00,,,0.00,LWC V2.00 B2112,2013-01-03 02:18:00,
2013-01-02 17:23:00,10.8,8.2,29.50,WSW,240,0.0,0.0,89,0.00,,,0.00,LWC V2.00 B2112,2013-01-03 02:23:00,
2013-01-02 17:28:00,10.7,8.1,29.50,WSW,240,0.0,0.0,89,0.00,,,0.00,LWC V2.00 B2112,2013-01-03 02:28:00,
2013-01-02 17:33:00,10.6,8.0,29.50,WSW,240,0.0,0.0,89,0.00,,,0.00,LWC V2.00 B2112,2013-01-03 02:33:00,
2013-01-02 17:38:00,10.4,7.8,29.50,WSW,240,0.0,0.0,89,0.00,,,0.00,LWC V2.00 B2112,2013-01-03 02:38:00,
2013-01-02 17:43:00,10.3,7.7,29.50,WSW,240,0.0,0.0,89,0.00,,,0.00,LWC V2.00 B2112,2013-01-03 02:43:00,
2013-01-02 17:48:00,10.2,7.6,29.50,WSW,240,0.0,0.0,89,0.00,,,0.00,LWC V2.00 B2112,2013-01-03 02:48:00,
2013-01-02 17:53:00,10.1,7.5,29.51,WSW,240,0.0,0.0,89,0.00,,,0.00,LWC V2.00 B2112,2013-01-03 02:53:00,
2013-01-02 17:58:00,10.1,7.5,29.51,WSW,240,0.0,0.0,89,0.00,,,0.00,LWC V2.00 B2112,2013-01-03 02:58:00,
2013-01-02 18:03:00,10.1,7.5,29.51,WSW,240,0.0,0.0,89,0.00,,,0.00,LWC V2.00 B2112,2013-01-03 03:03:00,
2013-01-02 18:08:00,10.5,7.9,29.51,WSW,240,0.0,0.0,89,0.00,,,0.00,LWC V2.00 B2112,2013-01-03 03:08:00,
2013-01-02 18:13:00,10.7,8.1,29.51,WSW,240,0.0,0.0,89,0.00,,,0.00,LWC V2.00 B2112,2013-01-03 03:13:00,
2013-01-02 18:18:00,10.8,8.2,29.51,WSW,240,0.0,0.0,89,0.00,,,0.00,LWC V2.00 B2112,2013-01-03 03:18:00,
2013-01-02 18:23:00,10.9,8.3,29.51,WSW,240,0.0,0.0,89,0.00,,,0.00,LWC V2.00 B2112,2013-01-03 03:23:00,
2013-01-02 18:28:00,10.8,8.2,29.51,WSW,240,0.0,0.0,89,0.00,,,0.00,LWC V2.00 B2112,2013-01-03 03:28:00,
2013-01-02 18:33:00,10.8,8.2,29.51,WSW,240,0.0,0.0,89,0.00,,,0.00,LWC V2.00 B2112,2013-01-03 03:33:00,
2013-01-02 18:38:00,10.9,8.3,29.51,WSW,240,0.0,0.0,89,0.00,,,0.00,LWC V2.00 B2112,2013-01-03 03:38:00,
2013-01-02 18:43:00,11.0,8.4,29.51,WSW,240,0.0,0.0,89,0.00,,,0.00,LWC V2.00 B2112,2013-01-03 03:43:00,
2013-01-02 18:48:00,11.1,8.5,29.51,WSW,240,0.0,0.0,89,0.00,,,0.00,LWC V2.00 B2112,2013-01-03 03:48:00,
2013-01-02 18:53:00,11.2,8.6,29.51,WSW,240,0.0,0.0,89,0.00,,,0.00,LWC V2.00 B2112,2013-01-03 03:53:00,
2013-01-02 18:58:00,11.3,8.7,29.51,WSW,240,0.0,0.0,89,0.00,,,0.00,LWC V2.00 B2112,2013-01-03 03:58:00,
2013-01-02 19:03:00,11.5,8.9,29.51,WSW,240,0.0,0.0,89,0.00,,,0.00,LWC V2.00 B2112,2013-01-03 04:03:00,
2013-01-02 19:08:00,11.7,9.1,29.52,WSW,240,0.0,0.0,89,0.00,,,0.00,LWC V2.00 B2112,2013-01-03 04:08:00,
2013-01-02 19:13:00,12.0,9.4,29.51,WSW,240,0.0,0.0,89,0.00,,,0.00,LWC V2.00 B2112,2013-01-03 04:13:00,
2013-01-02 19:18:00,12.2,9.6,29.52,WSW,240,0.0,0.0,89,0.00,,,0.00,LWC V2.00 B2112,2013-01-03 04:18:00,
2013-01-02 19:23:00,12.4,9.8,29.52,WSW,240,0.0,0.0,89,0.00,,,0.00,LWC V2.00 B2112,2013-01-03 04:23:00,
2013-01-02 19:28:00,12.5,9.9,29.52,WSW,240,0.0,0.0,89,0.00,,,0.00,LWC V2.00 B2112,2013-01-03 04:28:00,
2013-01-02 19:33:00,12.6,10.0,29.52,WSW,240,0.0,0.0,89,0.00,,,0.00,LWC V2.00 B2112,2013-01-03 04:33:00,
2013-01-02 19:38:00,12.7,10.1,29.52,WSW,240,0.0,0.0,89,0.00,,,0.00,LWC V2.00 B2112,2013-01-03 04:38:00,
2013-01-02 19:43:00,12.6,10.0,29.52,WSW,240,0.0,0.0,89,0.00,,,0.00,LWC V2.00 B2112,2013-01-03 04:43:00,
2013-01-02 19:48:00,12.5,9.9,29.52,WSW,240,0.0,0.0,89,0.00,,,0.00,LWC V2.00 B2112,2013-01-03 04:48:00,
2013-01-02 19:53:00,12.2,9.6,29.52,WSW,240,0.0,0.0,89,0.00,,,0.00,LWC V2.00 B2112,2013-01-03 04:53:00,
2013-01-02 19:58:00,12.2,9.6,29.52,WSW,240,0.0,0.0,89,0.00,,,0.00,LWC V2.00 B2112,2013-01-03 04:58:00,
2013-01-02 20:00:00,12.1,9.5,29.52,WSW,240,0.0,0.0,89,0.00,,,0.00,LWC V2.00 B2112,2013-01-03 05:00:00,
2013-01-02 20:01:00,12.1,9.5,29.52,WSW,240,0.0,0.0,89,0.00,,,0.00,LWC V2.00 B2112,2013-01-03 05:01:00,
2013-01-02 20:06:00,11.8,9.2,29.52,WSW,240,0.0,0.0,89,0.00,,,0.00,LWC V2.00 B2112,2013-01-03 05:06:00,
2013-01-02 20:11:00,11.5,8.9,29.52,WSW,240,0.0,0.0,89,0.00,,,0.00,LWC V2.00 B2112,2013-01-03 05:11:00,
2013-01-02 20:16:00,11.1,8.5,29.52,WSW,240,0.0,0.0,89,0.00,,,0.00,LWC V2.00 B2112,2013-01-03 05:16:00,
2013-01-02 20:21:00,10.7,8.1,29.53,WSW,240,0.0,0.0,89,0.00,,,0.00,LWC V2.00 B2112,2013-01-03 05:21:00,
2013-01-02 20:26:00,10.4,7.8,29.53,WSW,240,0.0,0.0,89,0.00,,,0.00,LWC V2.00 B2112,2013-01-03 05:26:00,
2013-01-02 20:31:00,10.0,7.4,29.53,WSW,240,0.0,0.0,89,0.00,,,0.00,LWC V2.00 B2112,2013-01-03 05:31:00,
2013-01-02 20:36:00,9.9,7.3,29.53,WSW,240,0.0,0.0,89,0.00,,,0.00,LWC V2.00 B2112,2013-01-03 05:36:00,
2013-01-02 20:41:00,9.6,7.0,29.53,WSW,240,0.0,0.0,89,0.00,,,0.00,LWC V2.00 B2112,2013-01-03 05:41:00,
2013-01-02 20:46:00,9.3,6.7,29.53,WSW,240,0.0,0.0,89,0.00,,,0.00,LWC V2.00 B2112,2013-01-03 05:46:00,
2013-01-02 20:51:00,9.0,6.4,29.53,WSW,240,0.0,0.0,89,0.00,,,0.00,LWC V2.00 B2112,2013-01-03 05:51:00,
2013-01-02 20:56:00,8.9,6.3,29.53,WSW,240,0.0,0.0,89,0.00,,,0.00,LWC V2.00 B2112,2013-01-03 05:56:00,
2013-01-02 21:01:00,8.9,6.3,29.53,WSW,240,0.0,0.0,89,0.00,,,0.00,LWC V2.00 B2112,2013-01-03 06:01:00,
2013-01-02 21:06:00,8.8,6.2,29.53,WSW,240,0.0,0.0,89,0.00,,,0.00,LWC V2.00 B2112,2013-01-03 06:06:00,
2013-01-02 21:11:00,8.7,6.1,29.54,WSW,240,0.0,0.0,89,0.00,,,0.00,LWC V2.00 B2112,2013-01-03 06:11:00,
2013-01-02 21:16:00,8.6,6.0,29.54,WSW,240,0.0,0.0,89,0.00,,,0.00,LWC V2.00 B2112,2013-01-03 06:16:00,
2013-01-02 21:21:00,8.5,5.9,29.54,WSW,240,0.0,0.0,89,0.00,,,0.00,LWC V2.00 B2112,2013-01-03 06:21:00,
2013-01-02 21:26:00,8.4,5.8,29.54,WSW,240,0.0,0.0,89,0.00,,,0.00,LWC V2.00 B2112,2013-01-03 06:26:00,
2013-01-02 21:31:00,8.4,5.8,29.54,WSW,240,0.0,0.0,89,0.00,,,0.00,LWC V2.00 B2112,2013-01-03 06:31:00,
2013-01-02 21:36:00,8.3,5.7,29.54,WSW,240,0.0,0.0,89,0.00,,,0.00,LWC V2.00 B2112,2013-01-03 06:36:00,
2013-01-02 21:41:00,8.3,5.7,29.54,WSW,240,0.0,0.0,89,0.00,,,0.00,LWC V2.00 B2112,2013-01-03 06:41:00,
2013-01-02 21:46:00,8.1,5.5,29.54,WSW,240,0.0,0.0,89,0.00,,,0.00,LWC V2.00 B2112,2013-01-03 06:46:00,
2013-01-02 21:51:00,8.0,5.4,29.54,WSW,240,0.0,0.0,89,0.00,,,0.00,LWC V2.00 B2112,2013-01-03 06:51:00,
2013-01-02 21:56:00,7.8,5.2,29.55,WSW,240,0.0,0.0,89,0.00,,,0.00,LWC V2.00 B2112,2013-01-03 06:56:00,
2013-01-02 22:01:00,7.8,5.2,29.55,WSW,240,0.0,0.0,89,0.00,,,0.00,LWC V2.00 B2112,2013-01-03 07:01:00,
2013-01-02 22:06:00,7.8,5.2,29.55,WSW,240,0.0,0.0,89,0.00,,,0.00,LWC V2.00 B2112,2013-01-03 07:06:00,
2013-01-02 22:11:00,8.1,5.5,29.55,WSW,240,0.0,0.0,89,0.00,,,0.00,LWC V2.00 B2112,2013-01-03 07:11:00,
2013-01-02 22:16:00,9.2,6.6,29.55,WSW,240,0.0,0.0,89,0.00,,,0.00,LWC V2.00 B2112,2013-01-03 07:16:00,
2013-01-02 22:21:00,9.9,7.3,29.55,WSW,240,0.0,0.0,89,0.00,,,0.00,LWC V2.00 B2112,2013-01-03 07:21:00,
2013-01-02 22:26:00,9.9,7.3,29.55,WSW,240,0.0,0.0,89,0.00,,,0.00,LWC V2.00 B2112,2013-01-03 07:26:00,
2013-01-02 22:31:00,9.9,7.3,29.55,WSW,240,0.0,0.0,89,0.00,,,0.00,LWC V2.00 B2112,2013-01-03 07:31:00,
2013-01-02 22:36:00,9.5,6.9,29.56,WSW,240,0.0,0.0,89,0.00,,,0.00,LWC V2.00 B2112,2013-01-03 07:36:00,
2013-01-02 22:41:00,9.3,6.7,29.55,WSW,240,0.0,0.0,89,0.00,,,0.00,LWC V2.00 B2112,2013-01-03 07:41:00,
2013-01-02 22:46:00,9.3,6.7,29.55,WSW,240,0.0,0.0,89,0.00,,,0.00,LWC V2.00 B2112,2013-01-03 07:46:00,
2013-01-02 22:51:00,9.2,6.6,29.56,WSW,240,0.0,0.0,89,0.00,,,0.00,LWC V2.00 B2112,2013-01-03 07:51:00,
2013-01-02 22:56:00,9.2,6.6,29.56,WSW,240,0.0,0.0,89,0.00,,,0.00,LWC V2.00 B2112,2013-01-03 07:56:00,
2013-01-02 23:01:00,9.0,6.4,29.56,WSW,240,0.0,0.0,89,0.00,,,0.00,LWC V2.00 B2112,2013-01-03 08:01:00,
2013-01-02 23:06:00,9.3,6.7,29.56,WSW,240,0.0,0.0,89,0.00,,,0.00,LWC V2.00 B2112,2013-01-03 08:06:00,
2013-01-02 23:11:00,9.8,7.2,29.56,WSW,240,0.0,0.0,89,0.00,,,0.00,LWC V2.00 B2112,2013-01-03 08:11:00,
2013-01-02 23:16:00,10.6,8.0,29.56,WSW,240,0.0,0.0,89,0.00,,,0.00,LWC V2.00 B2112,2013-01-03 08:16:00,
2013-01-02 23:21:00,11.3,8.7,29.56,WSW,240,0.0,0.0,89,0.00,,,0.00,LWC V2.00 B2112,2013-01-03 08:21:00,
2013-01-02 23:26:00,12.2,9.6,29.56,WSW,240,0.0,0.0,89,0.00,,,0.00,LWC V2.00 B2112,2013-01-03 08:26:00,
2013-01-02 23:31:00,12.5,9.9,29.56,WSW,240,0.0,0.0,89,0.00,,,0.00,LWC V2.00 B2112,2013-01-03 08:31:00,
2013-01-02 23:36:00,12.3,9.7,29.56,WSW,240,0.0,0.0,89,0.00,,,0.00,LWC V2.00 B2112,2013-01-03 08:36:00,
2013-01-02 23:41:00,12.1,9.5,29.56,WSW,240,0.0,0.0,89,0.00,,,0.00,LWC V2.00 B2112,2013-01-03 08:41:00,
2013-01-02 23:46:00,11.9,9.3,29.57,WSW,240,0.0,0.0,89,0.00,,,0.00,LWC V2.00 B2112,2013-01-03 08:46:00,
2013-01-02 23:51:00,12.1,9.5,29.57,WSW,240,0.0,0.0,89,0.00,,,0.00,LWC V2.00 B2112,2013-01-03 08:51:00,
2013-01-02 23:56:00,12.7,10.1,29.57,WSW,240,0.0,0.0,89,0.00,,,0.00,LWC V2.00 B2112,2013-01-03 08:56:00,